Butte, MT

5:15 PM MDT on July 20, 2017 (GMT -0600)
Mooney

Weather History for KBTM - August, 2014

Change the Weather History Date:

Friday, August 1, 2014

  Actual Average Record
Temperature  
Mean Temperature 67 °F 64 °F  
Max Temperature 86 °F 83 °F 95 °F (2000)
Min Temperature 48 °F 46 °F 34 °F (2002)
Degree Days  
Heating Degree Days 0 2  
Month to date heating degree days 0 2  
Since 1 June heating degree days 388 389  
Since 1 July heating degree days 35 102  
Cooling Degree Days 2 2  
Month to date cooling degree days 2 2  
Year to date cooling degree days 63 53  
Since 1 June cooling degree days 63 53  
Growing Degree Days 17 (Base 50)    
Moisture  
Dew Point 38 °F    
Average Humidity 39    
Maximum Humidity 63    
Minimum Humidity 15    
Precipitation  
Precipitation 0.00 in 0.04 in 0.61 in (2013)
Month to date precipitation 0.00 0.04  
Year to date precipitation 8.40 8.56  
Sea Level Pressure  
Sea Level Pressure 30.11 in    
Wind  
Wind Speed 6 mph (SSE)    
Max Wind Speed 18 mph    
Max Gust Speed 24 mph    
Visibility 10 miles    
Events      
T = Trace of Precipitation, MM = Missing Value Source: NWS Daily Summary

Daily Weather History Graph

Daily Weather History Graph

Search for Another Location

Airport or City:

Trip Planner

Search our weather history database for the weather conditions in past years. The results will help you decide how hot, cold, wet, or windy it might be!

Date:

Astronomy

Aug. 01, 2014 Rise Set
Actual Time 6:12 AM MDT 8:59 PM MDT
Civil Twilight 5:38 AM MDT 9:33 PM MDT
Nautical Twilight 4:54 AM MDT 10:17 PM MDT
Astronomical Twilight 4:02 AM MDT 11:08 PM MDT
Moon 12:00 PM MDT (8/1) 11:24 PM MDT (8/1)
Length of Visible Light 15h 55m
Length of Day
14h 46m
Waxing Crescent, 28% of the Moon is Illuminated
Aug 1
Waxing Crescent
Aug 3
First Quarter
Aug 10
Full
Aug 17
Last Quarter
Aug 25
New

Hourly Weather History & Observations

Time (MDT) Temp. Dew Point Humidity Pressure Visibility Wind Dir Wind Speed Gust Speed Precip Events Conditions
12:53 AM 57.0 °F 42.1 °F 57% 30.11 in 10.0 mi SE 5.8 mph - N/A   Clear
1:53 AM 57.9 °F 39.9 °F 51% 30.11 in 10.0 mi SE 6.9 mph - N/A   Clear
2:53 AM 55.0 °F 39.9 °F 57% 30.11 in 10.0 mi Calm Calm - N/A   Clear
3:53 AM 52.0 °F 39.9 °F 63% 30.13 in 10.0 mi SSE 5.8 mph - N/A   Clear
4:53 AM 51.1 °F 39.0 °F 63% 30.13 in 10.0 mi South 3.5 mph - N/A   Clear
5:53 AM 50.0 °F 37.9 °F 63% 30.14 in 10.0 mi SE 5.8 mph - N/A   Clear
6:53 AM 50.0 °F 37.9 °F 63% 30.15 in 10.0 mi South 5.8 mph - N/A   Clear
7:53 AM 54.0 °F 39.0 °F 57% 30.15 in 10.0 mi Calm Calm - N/A   Clear
8:53 AM 61.0 °F 39.9 °F 46% 30.14 in 10.0 mi Calm Calm - N/A   Clear
9:53 AM 66.9 °F 42.1 °F 40% 30.14 in 10.0 mi NNW 4.6 mph - N/A   Clear
10:01 AM 69.1 °F 42.1 °F 38% 30.30 in 1.0 mi North 3.5 mph - N/A   Haze
10:10 AM 70.0 °F 42.1 °F 36% 30.30 in 10.0 mi North 3.5 mph - N/A   Clear
11:53 AM 79.0 °F 39.0 °F 24% 30.11 in 10.0 mi ESE 4.6 mph - N/A   Clear
12:53 PM 82.0 °F 34.0 °F 18% 30.09 in 10.0 mi SE 8.1 mph 21.9 mph N/A   Clear
1:53 PM 84.0 °F 34.0 °F 17% 30.07 in 10.0 mi South 11.5 mph - N/A   Clear
2:53 PM 84.0 °F 32.0 °F 15% 30.06 in 10.0 mi South 10.4 mph - N/A   Clear
3:53 PM 84.0 °F 32.0 °F 15% 30.05 in 10.0 mi SSE 6.9 mph - N/A   Partly Cloudy
4:53 PM 84.9 °F 33.1 °F 16% 30.04 in 10.0 mi ESE 11.5 mph 19.6 mph N/A   Clear
5:53 PM 84.9 °F 32.0 °F 15% 30.04 in 10.0 mi SSE 15.0 mph - N/A   Partly Cloudy
6:53 PM 81.0 °F 30.0 °F 16% 30.05 in 10.0 mi SSW 11.5 mph - N/A   Clear
7:53 PM 77.0 °F 36.0 °F 23% 30.07 in 10.0 mi South 6.9 mph - N/A   Partly Cloudy
8:53 PM 72.0 °F 41.0 °F 33% 30.09 in 10.0 mi WNW 12.7 mph - N/A   Clear
9:53 PM 72.0 °F 41.0 °F 33% 30.10 in 10.0 mi North 5.8 mph - N/A   Clear
10:53 PM 70.0 °F 41.0 °F 35% 30.09 in 10.0 mi South 8.1 mph - N/A   Scattered Clouds
11:53 PM 68.0 °F 43.0 °F 40% 30.07 in 10.0 mi NW 3.5 mph - N/A   Partly Cloudy